Time,TemperatureF,DewpointF,PressureIn,WindDirection,WindDirectionDegrees,WindSpeedMPH,WindSpeedGustMPH,Humidity,HourlyPrecipIn,Conditions,Clouds,dailyrainin,SoftwareType,DateUTC
2013-03-07 00:00:00,42.3,0.0,0.00,ENE,59,0.0,0.0,0,0.00,,,0.00,WUHU216PEETBRO,2013-03-07 06:00:00,
2013-03-07 00:05:00,41.8,0.0,0.00,ENE,59,0.0,0.0,0,0.00,,,0.00,WUHU216PEETBRO,2013-03-07 06:05:00,
2013-03-07 00:10:00,41.3,0.0,0.00,ENE,59,0.0,0.0,0,0.00,,,0.00,WUHU216PEETBRO,2013-03-07 06:10:00,
2013-03-07 00:15:00,41.3,0.0,0.00,ENE,59,0.0,0.0,0,0.00,,,0.00,WUHU216PEETBRO,2013-03-07 06:15:00,
2013-03-07 00:20:00,41.5,0.0,0.00,ENE,59,0.0,0.0,0,0.00,,,0.00,WUHU216PEETBRO,2013-03-07 06:20:00,
2013-03-07 00:25:00,41.0,0.0,0.00,ENE,59,0.0,0.0,0,0.00,,,0.00,WUHU216PEETBRO,2013-03-07 06:25:00,
2013-03-07 00:30:00,41.1,0.0,0.00,ENE,59,0.0,0.0,0,0.00,,,0.00,WUHU216PEETBRO,2013-03-07 06:30:00,
2013-03-07 00:35:00,40.5,0.0,0.00,ENE,59,0.0,0.0,0,0.00,,,0.00,WUHU216PEETBRO,2013-03-07 06:35:00,
2013-03-07 00:40:00,41.3,0.0,0.00,NE,38,0.0,2.7,0,0.00,,,0.00,WUHU216PEETBRO,2013-03-07 06:40:00,
2013-03-07 00:45:00,42.3,0.0,0.00,NNE,22,0.0,2.7,0,0.00,,,0.00,WUHU216PEETBRO,2013-03-07 06:45:00,
2013-03-07 00:50:00,42.4,0.0,0.00,NNE,15,0.9,2.5,0,0.00,,,0.00,WUHU216PEETBRO,2013-03-07 06:50:00,
2013-03-07 00:55:00,43.5,0.0,0.00,North,5,0.0,1.9,0,0.00,,,0.00,WUHU216PEETBRO,2013-03-07 06:55:00,
2013-03-07 01:00:00,43.8,0.0,0.00,NNE,29,0.0,2.5,0,0.00,,,0.00,WUHU216PEETBRO,2013-03-07 07:00:00,
2013-03-07 01:05:00,44.0,0.0,0.00,NNE,21,3.4,4.0,0,0.00,,,0.00,WUHU216PEETBRO,2013-03-07 07:05:00,
2013-03-07 01:10:00,44.8,0.0,0.00,East,83,0.0,4.0,0,0.00,,,0.00,WUHU216PEETBRO,2013-03-07 07:10:00,
2013-03-07 01:15:00,44.5,0.0,0.00,NE,55,0.0,3.4,0,0.00,,,0.00,WUHU216PEETBRO,2013-03-07 07:15:00,
2013-03-07 01:19:00,44.5,0.0,0.00,East,94,1.4,3.4,0,0.00,,,0.00,WUHU216PEETBRO,2013-03-07 07:19:00,
2013-03-07 01:24:00,44.5,0.0,0.00,ESE,110,0.0,3.4,0,0.00,,,0.00,WUHU216PEETBRO,2013-03-07 07:24:00,
2013-03-07 01:29:00,44.5,0.0,0.00,ESE,110,0.0,1.4,0,0.00,,,0.00,WUHU216PEETBRO,2013-03-07 07:29:00,
2013-03-07 01:34:00,43.5,0.0,0.00,ESE,110,0.0,0.0,0,0.00,,,0.00,WUHU216PEETBRO,2013-03-07 07:34:00,
2013-03-07 01:39:00,43.0,0.0,0.00,ESE,110,0.0,0.0,0,0.00,,,0.00,WUHU216PEETBRO,2013-03-07 07:39:00,
2013-03-07 01:41:00,43.0,0.0,0.00,ESE,110,0.0,0.0,0,0.00,,,0.00,WUHU216PEETBRO,2013-03-07 07:41:00,
2013-03-07 01:46:00,42.3,0.0,0.00,ESE,110,0.0,0.0,0,0.00,,,0.00,WUHU216PEETBRO,2013-03-07 07:46:00,
2013-03-07 01:51:00,41.8,0.0,0.00,ESE,110,0.0,0.0,0,0.00,,,0.00,WUHU216PEETBRO,2013-03-07 07:51:00,
2013-03-07 01:56:00,42.0,0.0,0.00,North,9,0.0,1.4,0,0.00,,,0.00,WUHU216PEETBRO,2013-03-07 07:56:00,
2013-03-07 02:01:00,42.0,0.0,0.00,North,9,0.0,1.4,0,0.00,,,0.00,WUHU216PEETBRO,2013-03-07 08:01:00,
2013-03-07 02:06:00,41.6,0.0,0.00,North,9,0.0,0.0,0,0.00,,,0.00,WUHU216PEETBRO,2013-03-07 08:06:00,
2013-03-07 02:11:00,42.4,0.0,0.00,North,9,0.0,0.0,0,0.00,,,0.00,WUHU216PEETBRO,2013-03-07 08:11:00,
2013-03-07 02:16:00,42.0,0.0,0.00,North,9,0.0,0.0,0,0.00,,,0.00,WUHU216PEETBRO,2013-03-07 08:16:00,
2013-03-07 02:21:00,40.5,0.0,0.00,North,9,0.0,0.0,0,0.00,,,0.00,WUHU216PEETBRO,2013-03-07 08:21:00,
2013-03-07 02:26:00,40.5,0.0,0.00,North,9,0.0,0.0,0,0.00,,,0.00,WUHU216PEETBRO,2013-03-07 08:26:00,
2013-03-07 02:31:00,39.8,0.0,0.00,North,9,0.0,0.0,0,0.00,,,0.00,WUHU216PEETBRO,2013-03-07 08:31:00,
2013-03-07 02:36:00,39.3,0.0,0.00,North,9,0.0,0.0,0,0.00,,,0.00,WUHU216PEETBRO,2013-03-07 08:36:00,
2013-03-07 02:41:00,38.6,0.0,0.00,North,9,0.0,0.0,0,0.00,,,0.00,WUHU216PEETBRO,2013-03-07 08:41:00,
2013-03-07 02:46:00,38.7,0.0,0.00,North,9,0.0,0.0,0,0.00,,,0.00,WUHU216PEETBRO,2013-03-07 08:46:00,
2013-03-07 02:51:00,39.3,0.0,0.00,NNE,15,0.5,0.5,0,0.00,,,0.00,WUHU216PEETBRO,2013-03-07 08:51:00,
2013-03-07 02:56:00,38.7,0.0,0.00,North,355,2.1,2.7,0,0.00,,,0.00,WUHU216PEETBRO,2013-03-07 08:56:00,
2013-03-07 03:01:00,38.1,0.0,0.00,North,8,0.0,2.7,0,0.00,,,0.00,WUHU216PEETBRO,2013-03-07 09:01:00,
2013-03-07 03:06:00,38.8,0.0,0.00,North,8,0.0,2.6,0,0.00,,,0.00,WUHU216PEETBRO,2013-03-07 09:06:00,
2013-03-07 03:11:00,38.2,0.0,0.00,North,8,0.0,0.0,0,0.00,,,0.00,WUHU216PEETBRO,2013-03-07 09:11:00,
2013-03-07 03:16:00,38.1,0.0,0.00,North,8,0.0,0.0,0,0.00,,,0.00,WUHU216PEETBRO,2013-03-07 09:16:00,
2013-03-07 03:21:00,38.2,0.0,0.00,North,8,0.0,0.0,0,0.00,,,0.00,WUHU216PEETBRO,2013-03-07 09:21:00,
2013-03-07 03:26:00,37.3,0.0,0.00,North,8,0.0,0.0,0,0.00,,,0.00,WUHU216PEETBRO,2013-03-07 09:26:00,
2013-03-07 03:31:00,36.6,0.0,0.00,North,8,0.0,0.0,0,0.00,,,0.00,WUHU216PEETBRO,2013-03-07 09:31:00,
2013-03-07 03:36:00,36.6,0.0,0.00,North,8,0.0,0.0,0,0.00,,,0.00,WUHU216PEETBRO,2013-03-07 09:36:00,
2013-03-07 03:41:00,36.3,0.0,0.00,North,8,0.0,0.0,0,0.00,,,0.00,WUHU216PEETBRO,2013-03-07 09:41:00,
2013-03-07 03:46:00,36.0,0.0,0.00,North,8,0.0,0.0,0,0.00,,,0.00,WUHU216PEETBRO,2013-03-07 09:46:00,
2013-03-07 03:51:00,35.9,0.0,0.00,North,8,0.0,0.0,0,0.00,,,0.00,WUHU216PEETBRO,2013-03-07 09:51:00,
2013-03-07 03:56:00,36.4,0.0,0.00,North,350,0.8,1.7,0,0.00,,,0.00,WUHU216PEETBRO,2013-03-07 09:56:00,
2013-03-07 04:01:00,36.1,0.0,0.00,North,352,0.0,1.7,0,0.00,,,0.00,WUHU216PEETBRO,2013-03-07 10:01:00,
2013-03-07 04:06:00,36.3,0.0,0.00,North,352,0.0,0.9,0,0.00,,,0.00,WUHU216PEETBRO,2013-03-07 10:06:00,
2013-03-07 04:11:00,36.3,0.0,0.00,NNE,12,0.0,2.5,0,0.00,,,0.00,WUHU216PEETBRO,2013-03-07 10:11:00,
2013-03-07 04:16:00,36.6,0.0,0.00,NNE,23,0.0,2.5,0,0.00,,,0.00,WUHU216PEETBRO,2013-03-07 10:16:00,
2013-03-07 04:21:00,36.7,0.0,0.00,NNE,23,0.0,1.0,0,0.00,,,0.00,WUHU216PEETBRO,2013-03-07 10:21:00,
2013-03-07 04:26:00,35.8,0.0,0.00,NNE,23,0.0,0.0,0,0.00,,,0.00,WUHU216PEETBRO,2013-03-07 10:26:00,
2013-03-07 04:31:00,34.4,0.0,0.00,NNE,23,0.0,0.0,0,0.00,,,0.00,WUHU216PEETBRO,2013-03-07 10:31:00,
2013-03-07 04:36:00,34.7,0.0,0.00,NNE,23,0.0,0.0,0,0.00,,,0.00,WUHU216PEETBRO,2013-03-07 10:36:00,
2013-03-07 04:41:00,34.9,0.0,0.00,North,7,1.3,2.6,0,0.00,,,0.00,WUHU216PEETBRO,2013-03-07 10:41:00,
2013-03-07 04:46:00,35.1,0.0,0.00,North,1,0.0,2.6,0,0.00,,,0.00,WUHU216PEETBRO,2013-03-07 10:46:00,
2013-03-07 04:51:00,34.1,0.0,0.00,North,1,0.0,1.7,0,0.00,,,0.00,WUHU216PEETBRO,2013-03-07 10:51:00,
2013-03-07 04:56:00,35.1,0.0,0.00,North,1,0.0,0.0,0,0.00,,,0.00,WUHU216PEETBRO,2013-03-07 10:56:00,
2013-03-07 05:01:00,35.3,0.0,0.00,North,1,0.0,0.0,0,0.00,,,0.00,WUHU216PEETBRO,2013-03-07 11:01:00,
2013-03-07 05:06:00,34.4,0.0,0.00,North,1,0.0,0.0,0,0.00,,,0.00,WUHU216PEETBRO,2013-03-07 11:06:00,
2013-03-07 05:11:00,34.1,0.0,0.00,North,1,0.0,0.0,0,0.00,,,0.00,WUHU216PEETBRO,2013-03-07 11:11:00,
2013-03-07 05:16:00,34.0,0.0,0.00,North,1,0.0,0.0,0,0.00,,,0.00,WUHU216PEETBRO,2013-03-07 11:16:00,
2013-03-07 05:21:00,34.0,0.0,0.00,North,1,0.0,0.0,0,0.00,,,0.00,WUHU216PEETBRO,2013-03-07 11:21:00,
2013-03-07 05:26:00,33.7,0.0,0.00,North,1,0.0,0.0,0,0.00,,,0.00,WUHU216PEETBRO,2013-03-07 11:26:00,
2013-03-07 05:31:00,33.9,0.0,0.00,North,1,0.0,0.7,0,0.00,,,0.00,WUHU216PEETBRO,2013-03-07 11:31:00,
2013-03-07 05:36:00,34.1,0.0,0.00,North,1,0.0,0.7,0,0.00,,,0.00,WUHU216PEETBRO,2013-03-07 11:36:00,
2013-03-07 05:41:00,33.4,0.0,0.00,North,1,0.0,0.0,0,0.00,,,0.00,WUHU216PEETBRO,2013-03-07 11:41:00,
2013-03-07 05:46:00,34.1,0.0,0.00,North,1,0.0,0.0,0,0.00,,,0.00,WUHU216PEETBRO,2013-03-07 11:46:00,
2013-03-07 05:51:00,33.1,0.0,0.00,North,1,0.0,0.0,0,0.00,,,0.00,WUHU216PEETBRO,2013-03-07 11:51:00,
2013-03-07 05:56:00,34.0,0.0,0.00,North,1,0.0,0.0,0,0.00,,,0.00,WUHU216PEETBRO,2013-03-07 11:56:00,
2013-03-07 06:01:00,33.7,0.0,0.00,North,1,0.0,0.0,0,0.00,,,0.00,WUHU216PEETBRO,2013-03-07 12:01:00,
2013-03-07 06:06:00,33.9,0.0,0.00,North,1,0.0,0.0,0,0.00,,,0.00,WUHU216PEETBRO,2013-03-07 12:06:00,
2013-03-07 06:11:00,33.6,0.0,0.00,North,1,0.0,0.0,0,0.00,,,0.00,WUHU216PEETBRO,2013-03-07 12:11:00,
2013-03-07 06:16:00,33.7,0.0,0.00,North,1,0.0,0.0,0,0.00,,,0.00,WUHU216PEETBRO,2013-03-07 12:16:00,
2013-03-07 06:21:00,33.7,0.0,0.00,North,1,0.0,0.0,0,0.00,,,0.00,WUHU216PEETBRO,2013-03-07 12:21:00,
2013-03-07 06:26:00,33.1,0.0,0.00,North,1,0.0,0.0,0,0.00,,,0.00,WUHU216PEETBRO,2013-03-07 12:26:00,
2013-03-07 06:31:00,33.1,0.0,0.00,North,1,0.0,0.0,0,0.00,,,0.00,WUHU216PEETBRO,2013-03-07 12:31:00,
2013-03-07 06:36:00,33.7,0.0,0.00,North,1,0.0,0.0,0,0.00,,,0.00,WUHU216PEETBRO,2013-03-07 12:36:00,
2013-03-07 06:41:00,34.1,0.0,0.00,North,1,0.0,0.0,0,0.00,,,0.00,WUHU216PEETBRO,2013-03-07 12:41:00,
2013-03-07 06:46:00,33.9,0.0,0.00,North,1,0.0,0.0,0,0.00,,,0.00,WUHU216PEETBRO,2013-03-07 12:46:00,
2013-03-07 06:51:00,38.7,0.0,0.00,North,1,0.0,0.0,0,0.00,,,0.00,WUHU216PEETBRO,2013-03-07 12:51:00,
2013-03-07 06:56:00,40.5,0.0,0.00,North,1,0.0,0.0,0,0.00,,,0.00,WUHU216PEETBRO,2013-03-07 12:56:00,
2013-03-07 07:01:00,42.5,0.0,0.00,North,1,0.0,0.0,0,0.00,,,0.00,WUHU216PEETBRO,2013-03-07 13:01:00,
2013-03-07 07:06:00,44.4,0.0,0.00,North,1,0.0,0.0,0,0.00,,,0.00,WUHU216PEETBRO,2013-03-07 13:06:00,
2013-03-07 07:11:00,47.4,0.0,0.00,North,1,0.0,0.0,0,0.00,,,0.00,WUHU216PEETBRO,2013-03-07 13:11:00,
2013-03-07 07:16:00,48.9,0.0,0.00,North,1,0.0,0.0,0,0.00,,,0.00,WUHU216PEETBRO,2013-03-07 13:16:00,
2013-03-07 07:21:00,50.2,0.0,0.00,North,1,0.0,0.0,0,0.00,,,0.00,WUHU216PEETBRO,2013-03-07 13:21:00,
2013-03-07 07:26:00,52.4,0.0,0.00,North,1,0.0,0.0,0,0.00,,,0.00,WUHU216PEETBRO,2013-03-07 13:26:00,
2013-03-07 07:31:00,48.7,0.0,0.00,North,1,0.0,0.0,0,0.00,,,0.00,WUHU216PEETBRO,2013-03-07 13:31:00,
2013-03-07 07:36:00,48.7,0.0,0.00,North,1,0.0,0.0,0,0.00,,,0.00,WUHU216PEETBRO,2013-03-07 13:36:00,
2013-03-07 07:41:00,51.5,0.0,0.00,North,1,0.0,0.0,0,0.00,,,0.00,WUHU216PEETBRO,2013-03-07 13:41:00,
2013-03-07 07:46:00,51.0,0.0,0.00,ENE,63,0.0,1.9,0,0.00,,,0.00,WUHU216PEETBRO,2013-03-07 13:46:00,
2013-03-07 07:51:00,51.0,0.0,0.00,ESE,122,1.2,2.1,0,0.00,,,0.00,WUHU216PEETBRO,2013-03-07 13:51:00,
2013-03-07 07:56:00,50.5,0.0,0.00,East,88,2.3,5.0,0,0.00,,,0.00,WUHU216PEETBRO,2013-03-07 13:56:00,
2013-03-07 08:01:00,51.2,0.0,0.00,ENE,57,2.4,7.5,0,0.00,,,0.00,WUHU216PEETBRO,2013-03-07 14:01:00,
2013-03-07 08:06:00,50.2,0.0,0.00,ESE,103,4.5,9.7,0,0.00,,,0.00,WUHU216PEETBRO,2013-03-07 14:06:00,
2013-03-07 08:11:00,50.7,0.0,0.00,ESE,104,4.8,9.7,0,0.00,,,0.00,WUHU216PEETBRO,2013-03-07 14:11:00,
2013-03-07 08:16:00,50.9,0.0,0.00,SE,124,5.3,7.9,0,0.00,,,0.00,WUHU216PEETBRO,2013-03-07 14:16:00,
2013-03-07 08:21:00,52.2,0.0,0.00,SE,132,4.2,7.3,0,0.00,,,0.00,WUHU216PEETBRO,2013-03-07 14:21:00,
2013-03-07 08:26:00,51.7,0.0,0.00,ESE,110,5.3,8.0,0,0.00,,,0.00,WUHU216PEETBRO,2013-03-07 14:26:00,
2013-03-07 08:31:00,51.9,0.0,0.00,ESE,115,2.5,8.0,0,0.00,,,0.00,WUHU216PEETBRO,2013-03-07 14:31:00,
2013-03-07 08:36:00,54.2,0.0,0.00,SE,132,2.9,7.9,0,0.00,,,0.00,WUHU216PEETBRO,2013-03-07 14:36:00,
2013-03-07 08:41:00,51.7,0.0,0.00,SSW,204,0.0,7.1,0,0.00,,,0.00,WUHU216PEETBRO,2013-03-07 14:41:00,
2013-03-07 08:46:00,53.2,0.0,0.00,SE,142,3.2,8.1,0,0.00,,,0.00,WUHU216PEETBRO,2013-03-07 14:46:00,
2013-03-07 08:51:00,54.7,0.0,0.00,ESE,107,4.5,8.1,0,0.00,,,0.00,WUHU216PEETBRO,2013-03-07 14:51:00,
2013-03-07 08:56:00,55.2,0.0,0.00,East,91,2.1,7.8,0,0.00,,,0.00,WUHU216PEETBRO,2013-03-07 14:56:00,
2013-03-07 09:01:00,55.1,0.0,0.00,ESE,119,3.4,7.8,0,0.00,,,0.00,WUHU216PEETBRO,2013-03-07 15:01:00,
2013-03-07 09:06:00,54.6,0.0,0.00,ENE,59,4.4,8.1,0,0.00,,,0.00,WUHU216PEETBRO,2013-03-07 15:06:00,
2013-03-07 09:11:00,57.2,0.0,0.00,SSE,152,0.0,8.1,0,0.00,,,0.00,WUHU216PEETBRO,2013-03-07 15:11:00,
2013-03-07 09:16:00,58.3,0.0,0.00,SE,131,0.0,7.3,0,0.00,,,0.00,WUHU216PEETBRO,2013-03-07 15:16:00,
2013-03-07 09:21:00,58.3,0.0,0.00,East,87,1.2,7.3,0,0.00,,,0.00,WUHU216PEETBRO,2013-03-07 15:21:00,
2013-03-07 09:26:00,59.4,0.0,0.00,East,83,0.0,7.0,0,0.00,,,0.00,WUHU216PEETBRO,2013-03-07 15:26:00,
2013-03-07 09:31:00,59.7,0.0,0.00,NNE,19,0.0,7.0,0,0.00,,,0.00,WUHU216PEETBRO,2013-03-07 15:31:00,
2013-03-07 09:36:00,60.9,0.0,0.00,East,97,2.7,6.6,0,0.00,,,0.00,WUHU216PEETBRO,2013-03-07 15:36:00,
2013-03-07 09:41:00,64.4,0.0,0.00,East,80,2.2,5.4,0,0.00,,,0.00,WUHU216PEETBRO,2013-03-07 15:41:00,
2013-03-07 09:46:00,59.3,0.0,0.00,NE,38,0.0,7.3,0,0.00,,,0.00,WUHU216PEETBRO,2013-03-07 15:46:00,
2013-03-07 09:51:00,60.9,0.0,0.00,East,87,2.2,7.3,0,0.00,,,0.00,WUHU216PEETBRO,2013-03-07 15:51:00,
2013-03-07 09:56:00,60.3,0.0,0.00,ESE,107,3.7,8.3,0,0.00,,,0.00,WUHU216PEETBRO,2013-03-07 15:56:00,
2013-03-07 10:01:00,59.7,0.0,0.00,East,79,2.9,9.1,0,0.00,,,0.00,WUHU216PEETBRO,2013-03-07 16:01:00,
2013-03-07 10:06:00,59.4,0.0,0.00,East,101,4.2,9.1,0,0.00,,,0.00,WUHU216PEETBRO,2013-03-07 16:06:00,
2013-03-07 10:11:00,62.0,0.0,0.00,SSW,194,3.0,7.8,0,0.00,,,0.00,WUHU216PEETBRO,2013-03-07 16:11:00,
2013-03-07 10:16:00,61.2,0.0,0.00,SE,135,1.4,8.3,0,0.00,,,0.00,WUHU216PEETBRO,2013-03-07 16:16:00,
2013-03-07 10:21:00,61.7,0.0,0.00,South,190,2.4,8.3,0,0.00,,,0.00,WUHU216PEETBRO,2013-03-07 16:21:00,
2013-03-07 10:26:00,62.8,0.0,0.00,East,94,5.1,7.8,0,0.00,,,0.00,WUHU216PEETBRO,2013-03-07 16:26:00,
2013-03-07 10:31:00,62.0,0.0,0.00,ENE,71,3.5,9.0,0,0.00,,,0.00,WUHU216PEETBRO,2013-03-07 16:31:00,
2013-03-07 10:36:00,60.9,0.0,0.00,ENE,73,4.7,9.9,0,0.00,,,0.00,WUHU216PEETBRO,2013-03-07 16:36:00,
2013-03-07 10:41:00,63.5,0.0,0.00,ESE,115,0.0,9.9,0,0.00,,,0.00,WUHU216PEETBRO,2013-03-07 16:41:00,
2013-03-07 10:46:00,61.7,0.0,0.00,ENE,62,7.4,10.5,0,0.00,,,0.00,WUHU216PEETBRO,2013-03-07 16:46:00,
2013-03-07 10:51:00,63.7,0.0,0.00,ESE,117,4.2,10.5,0,0.00,,,0.00,WUHU216PEETBRO,2013-03-07 16:51:00,
2013-03-07 10:56:00,64.4,0.0,0.00,East,84,2.6,9.4,0,0.00,,,0.00,WUHU216PEETBRO,2013-03-07 16:56:00,
2013-03-07 11:01:00,67.7,0.0,0.00,WSW,247,2.9,7.1,0,0.00,,,0.00,WUHU216PEETBRO,2013-03-07 17:01:00,
2013-03-07 11:06:00,67.1,0.0,0.00,SE,135,4.3,6.2,0,0.00,,,0.00,WUHU216PEETBRO,2013-03-07 17:06:00,
2013-03-07 11:11:00,67.1,0.0,0.00,East,88,0.0,6.2,0,0.00,,,0.00,WUHU216PEETBRO,2013-03-07 17:11:00,
2013-03-07 11:16:00,69.9,0.0,0.00,ESE,103,3.9,5.2,0,0.00,,,0.00,WUHU216PEETBRO,2013-03-07 17:16:00,
2013-03-07 11:21:00,68.7,0.0,0.00,SE,145,3.5,6.1,0,0.00,,,0.00,WUHU216PEETBRO,2013-03-07 17:21:00,
2013-03-07 11:26:00,65.6,0.0,0.00,ESE,122,5.0,9.7,0,0.00,,,0.00,WUHU216PEETBRO,2013-03-07 17:26:00,
2013-03-07 11:31:00,72.9,0.0,0.00,ENE,73,0.0,9.7,0,0.00,,,0.00,WUHU216PEETBRO,2013-03-07 17:31:00,
2013-03-07 11:36:00,69.9,0.0,0.00,ESE,103,0.0,5.9,0,0.00,,,0.00,WUHU216PEETBRO,2013-03-07 17:36:00,
2013-03-07 11:41:00,68.8,0.0,0.00,SW,218,0.0,6.3,0,0.00,,,0.00,WUHU216PEETBRO,2013-03-07 17:41:00,
2013-03-07 11:46:00,69.0,0.0,0.00,SE,139,1.4,7.1,0,0.00,,,0.00,WUHU216PEETBRO,2013-03-07 17:46:00,
2013-03-07 11:51:00,70.8,0.0,0.00,SSW,207,0.0,7.1,0,0.00,,,0.00,WUHU216PEETBRO,2013-03-07 17:51:00,
2013-03-07 11:56:00,71.7,0.0,0.00,North,359,2.2,7.3,0,0.00,,,0.00,WUHU216PEETBRO,2013-03-07 17:56:00,
2013-03-07 12:01:00,69.3,0.0,0.00,East,86,3.1,7.9,0,0.00,,,0.00,WUHU216PEETBRO,2013-03-07 18:01:00,
2013-03-07 12:06:00,75.2,0.0,0.00,WSW,245,0.7,7.9,0,0.00,,,0.00,WUHU216PEETBRO,2013-03-07 18:06:00,
2013-03-07 12:11:00,71.4,0.0,0.00,South,186,3.2,6.2,0,0.00,,,0.00,WUHU216PEETBRO,2013-03-07 18:11:00,
2013-03-07 12:16:00,70.8,0.0,0.00,WSW,252,4.7,6.2,0,0.00,,,0.00,WUHU216PEETBRO,2013-03-07 18:16:00,
2013-03-07 12:21:00,67.7,0.0,0.00,East,91,7.8,10.9,0,0.00,,,0.00,WUHU216PEETBRO,2013-03-07 18:21:00,
2013-03-07 12:26:00,70.5,0.0,0.00,NE,56,3.2,10.9,0,0.00,,,0.00,WUHU216PEETBRO,2013-03-07 18:26:00,
2013-03-07 12:31:00,68.9,0.0,0.00,West,278,2.0,9.1,0,0.00,,,0.00,WUHU216PEETBRO,2013-03-07 18:31:00,
2013-03-07 12:36:00,73.6,0.0,0.00,ESE,119,7.8,9.1,0,0.00,,,0.00,WUHU216PEETBRO,2013-03-07 18:36:00,
2013-03-07 12:41:00,70.5,0.0,0.00,NE,55,0.0,10.4,0,0.00,,,0.00,WUHU216PEETBRO,2013-03-07 18:41:00,
2013-03-07 12:46:00,77.4,0.0,0.00,SW,232,0.0,10.4,0,0.00,,,0.00,WUHU216PEETBRO,2013-03-07 18:46:00,
2013-03-07 12:51:00,75.2,0.0,0.00,SE,143,2.0,5.8,0,0.00,,,0.00,WUHU216PEETBRO,2013-03-07 18:51:00,
2013-03-07 12:56:00,72.0,0.0,0.00,SW,215,4.6,5.8,0,0.00,,,0.00,WUHU216PEETBRO,2013-03-07 18:56:00,
2013-03-07 13:01:00,70.5,0.0,0.00,WNW,282,0.0,5.9,0,0.00,,,0.00,WUHU216PEETBRO,2013-03-07 19:01:00,
2013-03-07 13:06:00,77.8,0.0,0.00,East,87,0.0,6.6,0,0.00,,,0.00,WUHU216PEETBRO,2013-03-07 19:06:00,
2013-03-07 13:11:00,76.2,0.0,0.00,SSE,158,0.0,6.8,0,0.00,,,0.00,WUHU216PEETBRO,2013-03-07 19:11:00,
2013-03-07 13:16:00,74.2,0.0,0.00,North,8,0.0,7.8,0,0.00,,,0.00,WUHU216PEETBRO,2013-03-07 19:16:00,
2013-03-07 13:21:00,78.9,0.0,0.00,NW,310,2.4,7.8,0,0.00,,,0.00,WUHU216PEETBRO,2013-03-07 19:21:00,
2013-03-07 13:26:00,74.9,0.0,0.00,NW,326,2.9,5.5,0,0.00,,,0.00,WUHU216PEETBRO,2013-03-07 19:26:00,
2013-03-07 13:31:00,77.8,0.0,0.00,WNW,292,1.0,5.5,0,0.00,,,0.00,WUHU216PEETBRO,2013-03-07 19:31:00,
2013-03-07 13:36:00,74.2,0.0,0.00,NW,307,0.0,5.5,0,0.00,,,0.00,WUHU216PEETBRO,2013-03-07 19:36:00,
2013-03-07 13:41:00,68.7,0.0,0.00,ESE,118,5.4,6.8,0,0.00,,,0.00,WUHU216PEETBRO,2013-03-07 19:41:00,
2013-03-07 13:46:00,69.5,0.0,0.00,WSW,252,0.0,6.8,0,0.00,,,0.00,WUHU216PEETBRO,2013-03-07 19:46:00,
2013-03-07 13:51:00,70.8,0.0,0.00,SSW,203,0.0,7.5,0,0.00,,,0.00,WUHU216PEETBRO,2013-03-07 19:51:00,
2013-03-07 13:56:00,70.2,0.0,0.00,East,86,4.1,9.3,0,0.00,,,0.00,WUHU216PEETBRO,2013-03-07 19:56:00,
2013-03-07 14:01:00,73.0,0.0,0.00,ENE,76,0.0,9.3,0,0.00,,,0.00,WUHU216PEETBRO,2013-03-07 20:01:00,
2013-03-07 14:06:00,70.0,0.0,0.00,South,180,3.1,5.8,0,0.00,,,0.00,WUHU216PEETBRO,2013-03-07 20:06:00,
2013-03-07 14:11:00,73.0,0.0,0.00,East,84,0.9,5.8,0,0.00,,,0.00,WUHU216PEETBRO,2013-03-07 20:11:00,
2013-03-07 14:16:00,75.5,0.0,0.00,WNW,296,1.1,4.8,0,0.00,,,0.00,WUHU216PEETBRO,2013-03-07 20:16:00,
2013-03-07 14:21:00,71.7,0.0,0.00,North,2,5.4,8.6,0,0.00,,,0.00,WUHU216PEETBRO,2013-03-07 20:21:00,
2013-03-07 14:26:00,75.9,0.0,0.00,ENE,64,0.0,8.6,0,0.00,,,0.00,WUHU216PEETBRO,2013-03-07 20:26:00,
2013-03-07 14:31:00,79.8,0.0,0.00,SSW,197,1.1,6.2,0,0.00,,,0.00,WUHU216PEETBRO,2013-03-07 20:31:00,
2013-03-07 14:36:00,71.1,0.0,0.00,SE,129,0.0,5.2,0,0.00,,,0.00,WUHU216PEETBRO,2013-03-07 20:36:00,
2013-03-07 14:41:00,73.3,0.0,0.00,SE,124,2.8,6.1,0,0.00,,,0.00,WUHU216PEETBRO,2013-03-07 20:41:00,
2013-03-07 14:46:00,78.1,0.0,0.00,ESE,119,0.0,6.1,0,0.00,,,0.00,WUHU216PEETBRO,2013-03-07 20:46:00,
2013-03-07 14:51:00,77.1,0.0,0.00,East,91,4.0,5.2,0,0.00,,,0.00,WUHU216PEETBRO,2013-03-07 20:51:00,
2013-03-07 14:56:00,74.6,0.0,0.00,ENE,63,0.0,5.6,0,0.00,,,0.00,WUHU216PEETBRO,2013-03-07 20:56:00,
2013-03-07 15:01:00,73.9,0.0,0.00,ESE,111,3.6,7.1,0,0.00,,,0.00,WUHU216PEETBRO,2013-03-07 21:01:00,
2013-03-07 15:06:00,75.9,0.0,0.00,WNW,296,2.4,7.1,0,0.00,,,0.00,WUHU216PEETBRO,2013-03-07 21:06:00,
2013-03-07 15:11:00,70.8,0.0,0.00,NE,45,2.5,8.6,0,0.00,,,0.00,WUHU216PEETBRO,2013-03-07 21:11:00,
2013-03-07 15:16:00,70.0,0.0,0.00,ESE,115,5.2,8.6,0,0.00,,,0.00,WUHU216PEETBRO,2013-03-07 21:16:00,
2013-03-07 15:21:00,66.8,0.0,0.00,ESE,104,1.3,7.0,0,0.00,,,0.00,WUHU216PEETBRO,2013-03-07 21:21:00,
2013-03-07 15:26:00,70.3,0.0,0.00,ENE,69,4.0,7.0,0,0.00,,,0.00,WUHU216PEETBRO,2013-03-07 21:26:00,
2013-03-07 15:31:00,75.9,0.0,0.00,East,81,0.0,6.2,0,0.00,,,0.00,WUHU216PEETBRO,2013-03-07 21:31:00,
2013-03-07 15:36:00,74.9,0.0,0.00,NNW,343,0.0,6.2,0,0.00,,,0.00,WUHU216PEETBRO,2013-03-07 21:36:00,
2013-03-07 15:41:00,78.1,0.0,0.00,NE,56,2.2,7.1,0,0.00,,,0.00,WUHU216PEETBRO,2013-03-07 21:41:00,
2013-03-07 15:46:00,68.2,0.0,0.00,ESE,103,3.6,8.0,0,0.00,,,0.00,WUHU216PEETBRO,2013-03-07 21:46:00,
2013-03-07 15:51:00,70.3,0.0,0.00,North,9,2.5,8.0,0,0.00,,,0.00,WUHU216PEETBRO,2013-03-07 21:51:00,
2013-03-07 15:56:00,71.7,0.0,0.00,SW,221,1.3,7.6,0,0.00,,,0.00,WUHU216PEETBRO,2013-03-07 21:56:00,
2013-03-07 16:01:00,74.6,0.0,0.00,SE,135,3.5,6.0,0,0.00,,,0.00,WUHU216PEETBRO,2013-03-07 22:01:00,
2013-03-07 16:06:00,73.9,0.0,0.00,North,0,0.0,6.1,0,0.00,,,0.00,WUHU216PEETBRO,2013-03-07 22:06:00,
2013-03-07 16:11:00,71.4,0.0,0.00,SE,141,4.0,6.1,0,0.00,,,0.00,WUHU216PEETBRO,2013-03-07 22:11:00,
2013-03-07 16:16:00,68.0,0.0,0.00,North,359,3.0,5.3,0,0.00,,,0.00,WUHU216PEETBRO,2013-03-07 22:16:00,
2013-03-07 16:21:00,71.1,0.0,0.00,NNW,344,0.0,5.3,0,0.00,,,0.00,WUHU216PEETBRO,2013-03-07 22:21:00,
2013-03-07 16:26:00,66.8,0.0,0.00,NE,38,0.0,5.2,0,0.00,,,0.00,WUHU216PEETBRO,2013-03-07 22:26:00,
2013-03-07 16:31:00,70.8,0.0,0.00,SE,138,2.0,5.2,0,0.00,,,0.00,WUHU216PEETBRO,2013-03-07 22:31:00,
2013-03-07 16:36:00,70.8,0.0,0.00,ENE,66,1.7,4.7,0,0.00,,,0.00,WUHU216PEETBRO,2013-03-07 22:36:00,
2013-03-07 16:41:00,68.5,0.0,0.00,ESE,122,3.8,4.7,0,0.00,,,0.00,WUHU216PEETBRO,2013-03-07 22:41:00,
2013-03-07 16:46:00,68.0,0.0,0.00,ESE,115,3.3,6.8,0,0.00,,,0.00,WUHU216PEETBRO,2013-03-07 22:46:00,
2013-03-07 16:51:00,72.7,0.0,0.00,East,91,0.0,6.8,0,0.00,,,0.00,WUHU216PEETBRO,2013-03-07 22:51:00,
2013-03-07 16:56:00,69.9,0.0,0.00,East,91,0.0,3.9,0,0.00,,,0.00,WUHU216PEETBRO,2013-03-07 22:56:00,
2013-03-07 17:01:00,66.2,0.0,0.00,NNW,345,0.0,2.4,0,0.00,,,0.00,WUHU216PEETBRO,2013-03-07 23:01:00,
2013-03-07 17:06:00,65.9,0.0,0.00,ESE,104,2.7,5.0,0,0.00,,,0.00,WUHU216PEETBRO,2013-03-07 23:06:00,
2013-03-07 17:10:00,64.5,0.0,0.00,East,81,0.0,5.0,0,0.00,,,0.00,WUHU216PEETBRO,2013-03-07 23:10:00,
2013-03-07 17:15:00,63.4,0.0,0.00,ENE,70,3.9,5.0,0,0.00,,,0.00,WUHU216PEETBRO,2013-03-07 23:15:00,
2013-03-07 17:20:00,62.8,0.0,0.00,East,87,4.5,5.5,0,0.00,,,0.00,WUHU216PEETBRO,2013-03-07 23:20:00,
2013-03-07 17:25:00,62.5,0.0,0.00,East,87,3.2,5.5,0,0.00,,,0.00,WUHU216PEETBRO,2013-03-07 23:25:00,
2013-03-07 17:30:00,63.1,0.0,0.00,East,97,3.5,5.4,0,0.00,,,0.00,WUHU216PEETBRO,2013-03-07 23:30:00,
2013-03-07 17:35:00,61.7,0.0,0.00,SE,136,6.0,6.0,0,0.00,,,0.00,WUHU216PEETBRO,2013-03-07 23:35:00,
2013-03-07 17:40:00,61.1,0.0,0.00,SE,127,2.5,6.0,0,0.00,,,0.00,WUHU216PEETBRO,2013-03-07 23:40:00,
2013-03-07 17:45:00,60.6,0.0,0.00,SE,128,3.0,5.1,0,0.00,,,0.00,WUHU216PEETBRO,2013-03-07 23:45:00,
2013-03-07 17:50:00,60.1,0.0,0.00,ESE,118,1.8,4.5,0,0.00,,,0.00,WUHU216PEETBRO,2013-03-07 23:50:00,
2013-03-07 17:55:00,59.8,0.0,0.00,ENE,60,1.8,4.1,0,0.00,,,0.00,WUHU216PEETBRO,2013-03-07 23:55:00,
2013-03-07 18:00:00,59.4,0.0,0.00,ENE,73,0.0,4.2,0,0.00,,,0.00,WUHU216PEETBRO,2013-03-08 00:00:00,
2013-03-07 18:06:00,59.1,0.0,0.00,ESE,103,0.4,4.2,0,0.00,,,0.00,WUHU216PEETBRO,2013-03-08 00:06:00,
2013-03-07 18:10:00,57.5,0.0,0.00,East,86,0.0,4.2,0,0.00,,,0.00,WUHU216PEETBRO,2013-03-08 00:10:00,
2013-03-07 18:15:00,56.5,0.0,0.00,South,175,0.0,2.7,0,0.00,,,0.00,WUHU216PEETBRO,2013-03-08 00:15:00,
2013-03-07 18:20:00,54.4,0.0,0.00,South,175,0.0,2.7,0,0.00,,,0.00,WUHU216PEETBRO,2013-03-08 00:20:00,
2013-03-07 18:25:00,55.2,0.0,0.00,South,175,0.0,0.0,0,0.00,,,0.00,WUHU216PEETBRO,2013-03-08 00:25:00,
2013-03-07 18:30:00,54.2,0.0,0.00,South,175,0.0,0.0,0,0.00,,,0.00,WUHU216PEETBRO,2013-03-08 00:30:00,
2013-03-07 18:35:00,53.4,0.0,0.00,South,175,0.0,0.0,0,0.00,,,0.00,WUHU216PEETBRO,2013-03-08 00:35:00,
2013-03-07 18:40:00,53.2,0.0,0.00,South,175,0.0,0.0,0,0.00,,,0.00,WUHU216PEETBRO,2013-03-08 00:40:00,
2013-03-07 18:45:00,53.0,0.0,0.00,South,175,0.0,0.0,0,0.00,,,0.00,WUHU216PEETBRO,2013-03-08 00:45:00,
2013-03-07 18:50:00,52.0,0.0,0.00,South,175,0.0,0.0,0,0.00,,,0.00,WUHU216PEETBRO,2013-03-08 00:50:00,
2013-03-07 18:55:00,51.0,0.0,0.00,South,175,0.0,0.0,0,0.00,,,0.00,WUHU216PEETBRO,2013-03-08 00:55:00,
2013-03-07 19:00:00,50.5,0.0,0.00,South,175,0.0,0.0,0,0.00,,,0.00,WUHU216PEETBRO,2013-03-08 01:00:00,
2013-03-07 19:05:00,50.2,0.0,0.00,South,175,0.0,0.0,0,0.00,,,0.00,WUHU216PEETBRO,2013-03-08 01:05:00,
2013-03-07 19:10:00,49.2,0.0,0.00,South,175,0.0,0.0,0,0.00,,,0.00,WUHU216PEETBRO,2013-03-08 01:10:00,
2013-03-07 19:15:00,49.1,0.0,0.00,South,175,0.0,0.0,0,0.00,,,0.00,WUHU216PEETBRO,2013-03-08 01:15:00,
2013-03-07 19:20:00,48.7,0.0,0.00,South,175,0.0,0.0,0,0.00,,,0.00,WUHU216PEETBRO,2013-03-08 01:20:00,
2013-03-07 19:25:00,48.7,0.0,0.00,South,175,0.0,0.0,0,0.00,,,0.00,WUHU216PEETBRO,2013-03-08 01:25:00,
2013-03-07 19:30:00,48.6,0.0,0.00,South,175,0.0,0.0,0,0.00,,,0.00,WUHU216PEETBRO,2013-03-08 01:30:00,
2013-03-07 19:35:00,47.8,0.0,0.00,South,175,0.0,0.0,0,0.00,,,0.00,WUHU216PEETBRO,2013-03-08 01:35:00,
2013-03-07 19:40:00,47.4,0.0,0.00,South,175,0.0,0.0,0,0.00,,,0.00,WUHU216PEETBRO,2013-03-08 01:40:00,
2013-03-07 19:45:00,47.1,0.0,0.00,South,175,0.0,0.0,0,0.00,,,0.00,WUHU216PEETBRO,2013-03-08 01:45:00,
2013-03-07 19:50:00,46.9,0.0,0.00,South,175,0.0,0.0,0,0.00,,,0.00,WUHU216PEETBRO,2013-03-08 01:50:00,
2013-03-07 19:55:00,46.1,0.0,0.00,South,175,0.0,0.0,0,0.00,,,0.00,WUHU216PEETBRO,2013-03-08 01:55:00,
2013-03-07 20:00:00,46.7,0.0,0.00,South,175,0.0,0.0,0,0.00,,,0.00,WUHU216PEETBRO,2013-03-08 02:00:00,
2013-03-07 20:05:00,46.0,0.0,0.00,South,175,0.0,0.0,0,0.00,,,0.00,WUHU216PEETBRO,2013-03-08 02:05:00,
2013-03-07 20:10:00,45.8,0.0,0.00,South,175,0.0,0.0,0,0.00,,,0.00,WUHU216PEETBRO,2013-03-08 02:10:00,
2013-03-07 20:15:00,45.3,0.0,0.00,South,175,0.0,0.0,0,0.00,,,0.00,WUHU216PEETBRO,2013-03-08 02:15:00,
2013-03-07 20:20:00,45.3,0.0,0.00,South,175,0.0,0.0,0,0.00,,,0.00,WUHU216PEETBRO,2013-03-08 02:20:00,
2013-03-07 20:25:00,45.1,0.0,0.00,South,175,0.0,0.0,0,0.00,,,0.00,WUHU216PEETBRO,2013-03-08 02:25:00,
2013-03-07 20:30:00,44.5,0.0,0.00,South,175,0.0,0.0,0,0.00,,,0.00,WUHU216PEETBRO,2013-03-08 02:30:00,
2013-03-07 20:35:00,44.3,0.0,0.00,South,175,0.0,0.0,0,0.00,,,0.00,WUHU216PEETBRO,2013-03-08 02:35:00,
2013-03-07 20:40:00,44.5,0.0,0.00,South,175,0.0,0.0,0,0.00,,,0.00,WUHU216PEETBRO,2013-03-08 02:40:00,
2013-03-07 20:45:00,44.5,0.0,0.00,South,175,0.0,0.0,0,0.00,,,0.00,WUHU216PEETBRO,2013-03-08 02:45:00,
2013-03-07 20:50:00,43.5,0.0,0.00,South,175,0.0,0.0,0,0.00,,,0.00,WUHU216PEETBRO,2013-03-08 02:50:00,
2013-03-07 20:55:00,44.3,0.0,0.00,South,175,0.0,0.0,0,0.00,,,0.00,WUHU216PEETBRO,2013-03-08 02:55:00,
2013-03-07 21:00:00,43.5,0.0,0.00,South,175,0.0,0.0,0,0.00,,,0.00,WUHU216PEETBRO,2013-03-08 03:00:00,
2013-03-07 21:05:00,43.5,0.0,0.00,South,175,0.0,0.0,0,0.00,,,0.00,WUHU216PEETBRO,2013-03-08 03:05:00,
2013-03-07 21:10:00,43.3,0.0,0.00,South,175,0.0,0.0,0,0.00,,,0.00,WUHU216PEETBRO,2013-03-08 03:10:00,
2013-03-07 21:15:00,43.0,0.0,0.00,South,175,0.0,0.0,0,0.00,,,0.00,WUHU216PEETBRO,2013-03-08 03:15:00,
2013-03-07 21:20:00,42.8,0.0,0.00,South,175,0.0,0.0,0,0.00,,,0.00,WUHU216PEETBRO,2013-03-08 03:20:00,
2013-03-07 21:25:00,42.3,0.0,0.00,South,175,0.0,0.0,0,0.00,,,0.00,WUHU216PEETBRO,2013-03-08 03:25:00,
2013-03-07 21:30:00,43.0,0.0,0.00,South,175,0.0,0.0,0,0.00,,,0.00,WUHU216PEETBRO,2013-03-08 03:30:00,
2013-03-07 21:35:00,42.5,0.0,0.00,South,175,0.0,0.0,0,0.00,,,0.00,WUHU216PEETBRO,2013-03-08 03:35:00,
2013-03-07 21:40:00,42.7,0.0,0.00,South,175,0.0,0.0,0,0.00,,,0.00,WUHU216PEETBRO,2013-03-08 03:40:00,
2013-03-07 21:45:00,42.3,0.0,0.00,South,175,0.0,0.0,0,0.00,,,0.00,WUHU216PEETBRO,2013-03-08 03:45:00,
2013-03-07 21:50:00,42.2,0.0,0.00,South,175,0.0,0.0,0,0.00,,,0.00,WUHU216PEETBRO,2013-03-08 03:50:00,
2013-03-07 21:55:00,42.1,0.0,0.00,South,175,0.0,0.0,0,0.00,,,0.00,WUHU216PEETBRO,2013-03-08 03:55:00,
2013-03-07 22:00:00,41.6,0.0,0.00,South,175,0.0,0.0,0,0.00,,,0.00,WUHU216PEETBRO,2013-03-08 04:00:00,
2013-03-07 22:05:00,41.8,0.0,0.00,South,175,0.0,0.0,0,0.00,,,0.00,WUHU216PEETBRO,2013-03-08 04:05:00,
2013-03-07 22:10:00,41.8,0.0,0.00,South,175,0.0,0.0,0,0.00,,,0.00,WUHU216PEETBRO,2013-03-08 04:10:00,
2013-03-07 22:15:00,42.0,0.0,0.00,South,175,0.0,0.0,0,0.00,,,0.00,WUHU216PEETBRO,2013-03-08 04:15:00,
2013-03-07 22:20:00,41.8,0.0,0.00,South,175,0.0,0.0,0,0.00,,,0.00,WUHU216PEETBRO,2013-03-08 04:20:00,
2013-03-07 22:25:00,42.0,0.0,0.00,South,175,0.0,0.0,0,0.00,,,0.00,WUHU216PEETBRO,2013-03-08 04:25:00,
2013-03-07 22:30:00,41.0,0.0,0.00,South,175,0.0,0.0,0,0.00,,,0.00,WUHU216PEETBRO,2013-03-08 04:30:00,
2013-03-07 22:35:00,41.0,0.0,0.00,South,175,0.0,0.0,0,0.00,,,0.00,WUHU216PEETBRO,2013-03-08 04:35:00,
2013-03-07 22:40:00,40.8,0.0,0.00,South,175,0.0,0.0,0,0.00,,,0.00,WUHU216PEETBRO,2013-03-08 04:40:00,
2013-03-07 22:45:00,40.8,0.0,0.00,South,175,0.0,0.0,0,0.00,,,0.00,WUHU216PEETBRO,2013-03-08 04:45:00,
2013-03-07 22:50:00,40.5,0.0,0.00,South,175,0.0,0.0,0,0.00,,,0.00,WUHU216PEETBRO,2013-03-08 04:50:00,
2013-03-07 22:55:00,40.8,0.0,0.00,South,175,0.0,0.0,0,0.00,,,0.00,WUHU216PEETBRO,2013-03-08 04:55:00,
2013-03-07 23:00:00,40.5,0.0,0.00,South,175,0.0,0.0,0,0.00,,,0.00,WUHU216PEETBRO,2013-03-08 05:00:00,
2013-03-07 23:05:00,40.3,0.0,0.00,South,175,0.0,0.0,0,0.00,,,0.00,WUHU216PEETBRO,2013-03-08 05:05:00,
2013-03-07 23:10:00,40.0,0.0,0.00,South,175,0.0,0.0,0,0.00,,,0.00,WUHU216PEETBRO,2013-03-08 05:10:00,
2013-03-07 23:15:00,39.8,0.0,0.00,South,175,0.0,0.0,0,0.00,,,0.00,WUHU216PEETBRO,2013-03-08 05:15:00,
2013-03-07 23:20:00,39.8,0.0,0.00,South,175,0.0,0.0,0,0.00,,,0.00,WUHU216PEETBRO,2013-03-08 05:20:00,
2013-03-07 23:25:00,40.0,0.0,0.00,South,175,0.0,0.0,0,0.00,,,0.00,WUHU216PEETBRO,2013-03-08 05:25:00,
2013-03-07 23:30:00,39.8,0.0,0.00,South,175,0.0,0.0,0,0.00,,,0.00,WUHU216PEETBRO,2013-03-08 05:30:00,
2013-03-07 23:32:00,39.5,0.0,0.00,South,175,0.0,0.0,0,0.00,,,0.00,WUHU216PEETBRO,2013-03-08 05:32:00,
2013-03-07 23:37:00,39.8,0.0,0.00,South,175,0.0,0.0,0,0.00,,,0.00,WUHU216PEETBRO,2013-03-08 05:37:00,
2013-03-07 23:42:00,39.8,0.0,0.00,South,175,0.0,0.0,0,0.00,,,0.00,WUHU216PEETBRO,2013-03-08 05:42:00,
2013-03-07 23:47:00,39.7,0.0,0.00,South,175,0.0,0.0,0,0.00,,,0.00,WUHU216PEETBRO,2013-03-08 05:47:00,
2013-03-07 23:52:00,39.8,0.0,0.00,South,175,0.0,0.0,0,0.00,,,0.00,WUHU216PEETBRO,2013-03-08 05:52:00,
2013-03-07 23:57:00,39.1,0.0,0.00,South,175,0.0,0.0,0,0.00,,,0.00,WUHU216PEETBRO,2013-03-08 05:57:00,